AirNav  
 
 621 users online  

0IL1 Loyola University Medical Center Heliport
Broadview, Illinois, USA

GOING TO BROADVIEW?


FAA INFORMATION EFFECTIVE 29 MARCH 2018

Location

FAA Identifier: 0IL1
Lat/Long: 41-51-39.1130N / 087-50-11.2130W
41-51.651883N / 087-50.186883W
41.8608647 / -87.8364481
(estimated)
Elevation: 623 ft. / 190 m (estimated)
Variation: 01W (1985)
Time zone: UTC -5 (UTC -6 during Standard Time)
Zip code: 60141

Heliport Operations

Heliport use: Private use, MEDICAL USE.
Activation date: 11/1989
Control tower: no
ARTCC: CHICAGO CENTER
FSS: KANKAKEE FLIGHT SERVICE STATION
Attendance: CONTINUOUS
Wind indicator: lighted
Segmented circle: no
Beacon: white-green-yellow (heliport)
24 HRS

Heliport Communications

UNICOM: 123.05
WX ASOS at MDW (6 nm SE): PHONE 773-884-4424
WX ASOS at ORD (8 nm NW): PHONE 773-462-0118
WX AWOS-3 at 06C (14 nm NW): 128.275 ((847) 895-2887)
WX ASOS at PWK (15 nm N): PHONE 847-465-0291
WX ASOS at DPA (19 nm W): PHONE 630-584-2728
WX AWOS-3 at LOT (19 nm SW): 118.525 (815-588-4802)

Nearby radio navigation aids

VOR radial/distance  VOR name  Freq  Var
ORDr156/8.2CHICAGO O'HARE VOR/DME113.9002E
OBKr169/22.2NORTHBROOK VOR/DME113.0002W
DPAr092/23.0DUPAGE VOR/DME108.4002E
CGTr329/24.2CHICAGO HEIGHTS VORTAC114.2002E
JOTr047/28.7JOLIET VOR/DME112.3002E
EONr355/35.5PEOTONE VORTAC113.2002E

Heliport Services

Runway Information

Helipad H1

Dimensions: 90 x 90 ft. / 27 x 27 m
Surface: concrete
Runway edge lights: PERIMETER LIGHTS.
Latitude: 41-51.651883N
Longitude: 087-50.186883W
Elevation: 623.0 ft.
Traffic pattern: leftleft

Heliport Ownership and Management from official FAA records

Ownership: Privately-owned
Owner: LOYOLA UNIVERSITY MED CENTER
2160 S 1ST AVENUE
MAYWOOD, IL 60153
Phone 708-216-5862
Manager: DAVE NIKSIC
2160 S 1ST AVENUE
MAYWOOD, IL 60153
Phone (708) 216-9503
CONTACT 701-216-9000 PHYSICAL PLANT AND GROUNDS

Heliport Operational Statistics

Aircraft based on the field: 1
Multi engine airplanes: 1
    

Instrument Procedures

There are no published instrument procedures at 0IL1.

Some nearby airports with instrument procedures:

KMDW - Chicago Midway International Airport (6 nm SE)
KORD - Chicago O'Hare International Airport (8 nm NW)
KPWK - Chicago Executive Airport (15 nm N)
1C5 - Bolingbrook's Clow International Airport (16 nm SW)
KDPA - DuPage Airport (19 nm W)
KLOT - Lewis University Airport (19 nm SW)
 
Loc | Ops | Rwys | IFR | FBO | Links
Com | Nav | Svcs | Stats | Notes

AirNav Hotels Sweepstakes
 
Area around 0IL1 (Loyola University Medical Center Heliport)
 
Road maps at: MapQuest Bing Google
 
Aerial photo
No photo
 
Sectional chart

 
Airport distance calculator
Flying to Loyola University Medical Center Heliport? Find the distance to fly.

From to 0IL1

Sunrise and sunset
Times for 25-Apr-2018
 Local
(UTC-5)
 Zulu
(UTC)
Morning civil twilight05:2710:27
Sunrise05:5710:57
Sunset19:4200:42
Evening civil twilight20:1201:12

Current date and time
Zulu (UTC)  26-Apr-2018 04:46:50
Local (UTC-5)  25-Apr-2018 23:46:50
 
METAR
KMDW 
6nm SE 
260353Z 02003KT 10SM CLR 06/M02 A3001 RMK AO2 SLP167 T00611017
KORD 
9nm NW 
260351Z 00000KT 10SM CLR 04/M02 A3001 RMK AO2 SLP165 T00441022
4IS3 
11nm SE 
SuperAWOS
260415Z AUTO 00000KT 06/01 A3003
K06C 
14nm NW 
260435Z AUTO 00000KT 10SM CLR 02/M02 A3001 RMK AO2 T00241016
KPWK 
16nm N 
260352Z 00000KT 10SM CLR 04/M01 A3003 RMK AO2 SLP173 T00391011
KDPA 
19nm W 
260352Z 00000KT 10SM CLR 03/M01 A3001 RMK AO2 SLP164 T00281011
KLOT 
19nm SW 
260435Z AUTO 00000KT 10SM CLR 03/M01 A3001 RMK AO2 T00291007
TAF
KMDW 
6nm SE 
260247Z 2603/2706 02006KT P6SM SKC FM260700 27003KT P6SM SKC FM261700 20006KT P6SM SCT250 FM270500 27006KT P6SM BKN150
KORD 
9nm NW 
260247Z 2603/2706 03004KT P6SM SKC FM261000 27004KT P6SM FEW250 FM261600 23008KT P6SM SCT250 FM270500 31008KT P6SM BKN110
KDPA 
19nm W 
260247Z 2603/2624 VRB03KT P6SM SKC FM261600 23007KT P6SM FEW250
NOTAMs
Click for the latest NOTAMs
NOTAMs are issued by the DoD/FAA and will open in a separate window not controlled by AirNav.

 

 
 

Would you like to see your business listed on this page?

 If your business provides an interesting product or service to pilots, flight crews, aircraft, or users of the Loyola University Medical Center Heliport, you should consider listing it here.  To start the listing process, click on the button below
 
Add a business
 

Other Pages about Loyola University Medical Center Heliport

Update a link
 
Copyright © AirNav, LLC. All rights reserved. Privacy Policy  Contact